Find Starlink 11415

NORAD ID: 62592 Int'l Des: 2025-008 Owner: SPXS Country: US Constellation: starlink operational
LEOCIRCULAR

リアルタイム位置

3D地球を読み込み中...

Starlink 11415について

説明を読み込み中...

次回通過

Passes for default location (London). Set your location on the main map for personalized predictions.

高度履歴

Loading altitude history...

軌道要素

1 62592U 25008F 26125.93624243 .00174115 00000-0 13247-2 0 9996
2 62592 42.9989 141.4567 0002368 317.9993 42.0692 15.70973678 76228
Epoch: May 5, 2026 • Age: 6 hours

現在のステータス

高度 368.0 km
速度 7.69 km/s
衛星直下点 -43.05°S, 127.88°E
打ち上げ日 Jan 13, 2025
運用期間 1.3 years
タイプ internet

技術仕様

分類 Payload
質量 960.00 kg
乾燥質量 910.00 kg
総質量 960.00 kg
長さ 0.30 m
直径 4.10 m
スパン 29.00 m
形状 Box + pan
製造者 SPXS
バスタイプ Starlink V2MD
フェーズステータス In Orbit
所有者/国 SPXS/US

Most Searched